Regional Weather Roundup
Issued by NWS

Home | Current Version | Previous Version | Graphics & Text | Print | Product List | Glossary On
Versions: 1 2 3 4 5 6 7 8 9 10 11 12 13 14 15 16 17 18 19 20 21 22 23 24 25 26 27 28 29 30 31 32 33 34 35 36 37 38 39 40 41 42 43 44 45 46 47 48 49 50
523
ASUS44 KLIX 020801
RWRLA
LOUISIANA WEATHER ROUNDUP
NATIONAL WEATHER SERVICE NEW ORLEANS LA
300 AM CDT TUE SEP 02 2014

NOTE: "FAIR" INDICATES FEW OR NO CLOUDS BELOW 12,000 FEET WITH NO
      SIGNIFICANT WEATHER AND/OR OBSTRUCTIONS TO VISIBILITY.
      SKY/WX - SKY CONDITION AND SIGNIFICANT WEATHER.
      TMP - AIR TEMPERATURE.    DP   - DEWPOINT TEMPERATURE.
      RH  - RELATIVE HUMIDITY.  PRES - PRESSURE.
      HX  - HEAT INDEX.         WCI  - WIND CHILL INDEX.

*  THESE STATIONS ARE NOT NWS OR FAA STATIONS AND ARE NOT UNDER
   NWS QUALITY CONTROL.

LAZ040-048-061>063-065-066-069-020900-
SOUTHEAST LOUISIANA

CITY           SKY/WX    TMP DP  RH WIND       PRES   REMARKS
N.O. AUDUBON     N/A     82  76  83 MISG        N/A
N.O. INTL ARPT CLEAR     80  75  84 SE5       30.00S
N.O. LAKEFRONT CLEAR     79  76  90 SE5       30.01S
N.O. DOWNTOWN* FAIR      81  73  78 SE5       30.01S
SLIDELL        PTCLDY    76  73  91 CALM      30.01R
BATON ROUGE    PTCLDY    76  74  93 NE3       30.00S
BOOTHVILLE     PTCLDY    83  77  82 S7        30.01S
BELLE CHASSE   PTCLDY    80  75  84 CALM      30.00S
BOGALUSA*        N/A     76  73  90 CALM      30.04S
GALLIANO*      NOT AVBL
NEW ROADS*     FAIR      77  76  96 CALM      30.00S
GONZALES*        N/A     76  76 100 CALM      30.00R
HAMMOND*       NOT AVBL
HOUMA*         CLEAR     79  74  84 CALM      29.99F
PORT FOURCHON* SUNNY     84  77  79 S6        30.01F

$$

LAZ041-044-053-054-020900-
SOUTHWEST LOUISIANA

CITY           SKY/WX    TMP DP  RH WIND       PRES   REMARKS
LAKE CHARLES   PTCLDY    79  77  94 SE3       29.96R
LAFAYETTE      CLEAR     78  76  93 CALM      29.98R
PATTERSON        N/A     77  75  94 CALM      30.01F
SALT POINT       N/A     85  77  77 VRB3      29.98S HX  95
NEW IBERIA     CLEAR     78  76  93 E5        29.99S
CHENAULT AIRPK CLEAR     78  76  92 SE6       29.98R

$$

LAZ027-028-020900-
CENTRAL LOUISIANA

CITY           SKY/WX    TMP DP  RH WIND       PRES   REMARKS
FORT POLK      PTCLDY    76  75  97 SE3       29.99S
ALEXANDRIA INT CLEAR     75  74  96 S3        29.97S
ALEXANDRIA     CLEAR     76  73  91 CALM      30.00R

$$

LAZ001-002-020900-
NORTHWEST LOUISIANA

CITY           SKY/WX    TMP DP  RH WIND       PRES   REMARKS
SHREVEPORT     MOCLDY    78  75  90 S6        29.94F
BARKSDALE AFB  PTCLDY    76  75  98 SE6       29.95F
DTN SHREVEPORT PTCLDY    78  75  90 S8        29.95F

$$

LAZ014-016-020900-
NORTHEAST LOUISIANA

CITY           SKY/WX    TMP DP  RH WIND       PRES   REMARKS
MONROE         CLEAR     76  74  93 SE3       30.00F
TALLULAH       MOCLDY    75  73  93 SE5       30.02R

$$




USA.gov is the U.S. government's official web portal to all federal, state and local government web resources and services.